******** Week 365 almanac for PRN-1 ******** ID: 1 Health: 0 Eccentricity: 0.001688957214 Time of Applicability(s): 503808 Orbital Inclination(rad): 0.9577516907 Rate of Right Ascen(r/s): -7.931758961e-09 SQRT(A) (m 1/2): 5153.570312 Right Ascen at Week(rad): 2.507901671 Argument of Perigee(rad): 0.1568360534 Mean Anom(rad): -2.728518518 Af0(s): 0.0002374074097 Af1(s/s): -7.275958e-12 week: 365 ******** Week 365 almanac for PRN-2 ******** ID: 2 Health: 0 Eccentricity: 0.01682949066 Time of Applicability(s): 503808 Orbital Inclination(rad): 0.9628389942 Rate of Right Ascen(r/s): -7.840326581e-09 SQRT(A) (m 1/2): 5153.530273 Right Ascen at Week(rad): 2.345531527 Argument of Perigee(rad): -0.7891638319 Mean Anom(rad): -1.206906573 Af0(s): 6.029394531e-05 Af1(s/s): 7.275958e-12 week: 365 ******** Week 365 almanac for PRN-3 ******** ID: 3 Health: 0 Eccentricity: 0.006669044495 Time of Applicability(s): 503808 Orbital Inclination(rad): 0.9940459158 Rate of Right Ascen(r/s): -7.748894201e-09 SQRT(A) (m 1/2): 5153.563965 Right Ascen at Week(rad): -2.78720302 Argument of Perigee(rad): 1.208346178 Mean Anom(rad): 1.487617942 Af0(s): 0.0004017084106 Af1(s/s): -1.455192e-11 week: 365 ******** Week 365 almanac for PRN-4 ******** ID: 4 Health: 0 Eccentricity: 0.003733158112 Time of Applicability(s): 503808 Orbital Inclination(rad): 0.9707246142 Rate of Right Ascen(r/s): -7.828897533e-09 SQRT(A) (m 1/2): 5153.669922 Right Ascen at Week(rad): -1.71750646 Argument of Perigee(rad): -2.870019258 Mean Anom(rad): -1.842912011 Af0(s): 4.14520874e-05 Af1(s/s): 0 week: 365 ******** Week 365 almanac for PRN-5 ******** ID: 5 Health: 0 Eccentricity: 0.005486488342 Time of Applicability(s): 503808 Orbital Inclination(rad): 0.9805576707 Rate of Right Ascen(r/s): -7.863184676e-09 SQRT(A) (m 1/2): 5153.680176 Right Ascen at Week(rad): -2.847430117 Argument of Perigee(rad): 1.421132458 Mean Anom(rad): -1.174424455 Af0(s): -0.0001831428589 Af1(s/s): 0 week: 365 ******** Week 365 almanac for PRN-6 ******** ID: 6 Health: 0 Eccentricity: 0.003794670105 Time of Applicability(s): 503808 Orbital Inclination(rad): 0.9865617674 Rate of Right Ascen(r/s): -7.657461821e-09 SQRT(A) (m 1/2): 5153.617676 Right Ascen at Week(rad): 2.459521355 Argument of Perigee(rad): -0.5347544663 Mean Anom(rad): 2.773515912 Af0(s): -0.0004831052368 Af1(s/s): 0 week: 365 ******** Week 365 almanac for PRN-7 ******** ID: 7 Health: 0 Eccentricity: 0.02071762085 Time of Applicability(s): 503808 Orbital Inclination(rad): 0.9509806036 Rate of Right Ascen(r/s): -7.817468486e-09 SQRT(A) (m 1/2): 5153.55957 Right Ascen at Week(rad): -0.7088088549 Argument of Perigee(rad): -1.979503712 Mean Anom(rad): 1.939755409 Af0(s): -0.000135661377 Af1(s/s): -3.637979e-12 week: 365 ******** Week 365 almanac for PRN-8 ******** ID: 8 Health: 0 Eccentricity: 0.01160049438 Time of Applicability(s): 503808 Orbital Inclination(rad): 0.9428792676 Rate of Right Ascen(r/s): -8.057478483e-09 SQRT(A) (m 1/2): 5153.647461 Right Ascen at Week(rad): 1.33723839 Argument of Perigee(rad): 0.5351312204 Mean Anom(rad): -1.534523824 Af0(s): 0.0003662857178 Af1(s/s): -7.275958e-12 week: 365 ******** Week 365 almanac for PRN-9 ******** ID: 9 Health: 0 Eccentricity: 0.003349781036 Time of Applicability(s): 503808 Orbital Inclination(rad): 0.9649482178 Rate of Right Ascen(r/s): -7.897471818e-09 SQRT(A) (m 1/2): 5153.707031 Right Ascen at Week(rad): -1.782031774 Argument of Perigee(rad): 2.056503855 Mean Anom(rad): -0.9397149083 Af0(s): 0.0006014321045 Af1(s/s): -3.637979e-12 week: 365 ******** Week 365 almanac for PRN-10 ******** ID: 10 Health: 0 Eccentricity: 0.0109295845 Time of Applicability(s): 503808 Orbital Inclination(rad): 0.9935665468 Rate of Right Ascen(r/s): -7.726036106e-09 SQRT(A) (m 1/2): 5153.606934 Right Ascen at Week(rad): -2.789709596 Argument of Perigee(rad): -2.257145996 Mean Anom(rad): 0.4954727986 Af0(s): -0.0004657707275 Af1(s/s): 0 week: 365 ******** Week 365 almanac for PRN-11 ******** ID: 11 Health: 0 Eccentricity: 0.002215385437 Time of Applicability(s): 503808 Orbital Inclination(rad): 0.9634501897 Rate of Right Ascen(r/s): -7.886042771e-09 SQRT(A) (m 1/2): 5153.546875 Right Ascen at Week(rad): 2.477451253 Argument of Perigee(rad): -2.326858607 Mean Anom(rad): -2.349777313 Af0(s): -0.0002984550293 Af1(s/s): 1.455192e-11 week: 365 ******** Week 365 almanac for PRN-12 ******** ID: 12 Health: 0 Eccentricity: 0.008924007416 Time of Applicability(s): 503808 Orbital Inclination(rad): 0.9593695611 Rate of Right Ascen(r/s): -7.863184676e-09 SQRT(A) (m 1/2): 5153.695312 Right Ascen at Week(rad): 0.4089010049 Argument of Perigee(rad): 1.571711623 Mean Anom(rad): 1.239937344 Af0(s): -0.0004808442139 Af1(s/s): 0 week: 365 ******** Week 365 almanac for PRN-13 ******** ID: 13 Health: 0 Eccentricity: 0.01010513306 Time of Applicability(s): 503808 Orbital Inclination(rad): 0.9762493419 Rate of Right Ascen(r/s): -7.737465153e-09 SQRT(A) (m 1/2): 5153.626465 Right Ascen at Week(rad): -1.606374495 Argument of Perigee(rad): 0.9943884404 Mean Anom(rad): -1.764050193 Af0(s): 0.0005373697876 Af1(s/s): 0 week: 365 ******** Week 365 almanac for PRN-14 ******** ID: 14 Health: 0 Eccentricity: 0.00692987442 Time of Applicability(s): 503808 Orbital Inclination(rad): 0.9427174806 Rate of Right Ascen(r/s): -8.034620388e-09 SQRT(A) (m 1/2): 5153.59668 Right Ascen at Week(rad): 0.3536679594 Argument of Perigee(rad): -2.731219837 Mean Anom(rad): 1.105796042 Af0(s): 0.0005871122925 Af1(s/s): 0 week: 365 ******** Week 365 almanac for PRN-15 ******** ID: 15 Health: 0 Eccentricity: 0.01665210724 Time of Applicability(s): 503808 Orbital Inclination(rad): 0.9429691493 Rate of Right Ascen(r/s): -8.148910863e-09 SQRT(A) (m 1/2): 5153.659668 Right Ascen at Week(rad): -1.92705213 Argument of Perigee(rad): 1.509116892 Mean Anom(rad): -2.530285581 Af0(s): 0.0003180505615 Af1(s/s): 3.637979e-12 week: 365 ******** Week 365 almanac for PRN-16 ******** ID: 16 Health: 0 Eccentricity: 0.0150141716 Time of Applicability(s): 503808 Orbital Inclination(rad): 0.9584767363 Rate of Right Ascen(r/s): -7.863184676e-09 SQRT(A) (m 1/2): 5153.609863 Right Ascen at Week(rad): 0.4258070012 Argument of Perigee(rad): 0.93266369 Mean Anom(rad): -0.4909262833 Af0(s): 0.0001914332764 Af1(s/s): 7.275958e-12 week: 365 ******** Week 365 almanac for PRN-17 ******** ID: 17 Health: 0 Eccentricity: 0.01261043549 Time of Applicability(s): 503808 Orbital Inclination(rad): 0.9584947127 Rate of Right Ascen(r/s): -7.886042771e-09 SQRT(A) (m 1/2): 5153.562988 Right Ascen at Week(rad): 1.442582723 Argument of Perigee(rad): -1.114785709 Mean Anom(rad): -1.576064143 Af0(s): -8.667254639e-05 Af1(s/s): -1.091394e-11 week: 365 ******** Week 365 almanac for PRN-18 ******** ID: 18 Health: 0 Eccentricity: 0.005839824676 Time of Applicability(s): 503808 Orbital Inclination(rad): 0.9715215651 Rate of Right Ascen(r/s): -7.783181343e-09 SQRT(A) (m 1/2): 5153.587891 Right Ascen at Week(rad): 2.453933335 Argument of Perigee(rad): -2.872033731 Mean Anom(rad): 2.725093277 Af0(s): -0.0002999623779 Af1(s/s): 1.091394e-11 week: 365 ******** Week 365 almanac for PRN-19 ******** ID: 19 Health: 0 Eccentricity: 0.01130533218 Time of Applicability(s): 503808 Orbital Inclination(rad): 0.9576498248 Rate of Right Ascen(r/s): -7.863184676e-09 SQRT(A) (m 1/2): 5153.678223 Right Ascen at Week(rad): 1.48646109 Argument of Perigee(rad): 2.950647625 Mean Anom(rad): 0.1931231629 Af0(s): 0.0005509359253 Af1(s/s): 0 week: 365 ******** Week 365 almanac for PRN-20 ******** ID: 20 Health: 0 Eccentricity: 0.002222537994 Time of Applicability(s): 503808 Orbital Inclination(rad): 0.9603462754 Rate of Right Ascen(r/s): -7.954617056e-09 SQRT(A) (m 1/2): 5153.710938 Right Ascen at Week(rad): -1.776615279 Argument of Perigee(rad): -1.930570998 Mean Anom(rad): 1.165504821 Af0(s): 7.988947754e-05 Af1(s/s): 1.818989e-11 week: 365 ******** Week 365 almanac for PRN-21 ******** ID: 21 Health: 0 Eccentricity: 0.0008254051208 Time of Applicability(s): 503808 Orbital Inclination(rad): 0.9634501897 Rate of Right Ascen(r/s): -8.034620388e-09 SQRT(A) (m 1/2): 5153.736328 Right Ascen at Week(rad): -2.782129199 Argument of Perigee(rad): -0.2026790842 Mean Anom(rad): 0.82977088 Af0(s): 0.0003270946533 Af1(s/s): 0 week: 365 ******** Week 365 almanac for PRN-22 ******** ID: 22 Health: 0 Eccentricity: 0.01201677322 Time of Applicability(s): 503808 Orbital Inclination(rad): 0.957925462 Rate of Right Ascen(r/s): -7.886042771e-09 SQRT(A) (m 1/2): 5153.564941 Right Ascen at Week(rad): 0.4291670783 Argument of Perigee(rad): -0.9927293742 Mean Anom(rad): -0.9284134097 Af0(s): -1.658083496e-05 Af1(s/s): 7.275958e-12 week: 365 ******** Week 365 almanac for PRN-23 ******** ID: 23 Health: 0 Eccentricity: 0.006100177765 Time of Applicability(s): 503808 Orbital Inclination(rad): 0.9885511487 Rate of Right Ascen(r/s): -7.783181343e-09 SQRT(A) (m 1/2): 5153.665039 Right Ascen at Week(rad): -2.821968882 Argument of Perigee(rad): -2.74107087 Mean Anom(rad): 1.564582881 Af0(s): 0.0005011934204 Af1(s/s): 3.637979e-12 week: 365 ******** Week 365 almanac for PRN-24 ******** ID: 24 Health: 0 Eccentricity: 0.01797866821 Time of Applicability(s): 503808 Orbital Inclination(rad): 0.9349397186 Rate of Right Ascen(r/s): -8.000333246e-09 SQRT(A) (m 1/2): 5153.589355 Right Ascen at Week(rad): -0.8180169769 Argument of Perigee(rad): 1.140741668 Mean Anom(rad): 2.92158176 Af0(s): -3.316166992e-05 Af1(s/s): 1.818989e-11 week: 365 ******** Week 365 almanac for PRN-25 ******** ID: 25 Health: 0 Eccentricity: 0.01289415359 Time of Applicability(s): 503808 Orbital Inclination(rad): 0.9477568471 Rate of Right Ascen(r/s): -7.988904198e-09 SQRT(A) (m 1/2): 5153.649414 Right Ascen at Week(rad): 0.3146761601 Argument of Perigee(rad): 1.160097689 Mean Anom(rad): 1.127658639 Af0(s): 0.000340660791 Af1(s/s): -3.637979e-12 week: 365 ******** Week 365 almanac for PRN-26 ******** ID: 26 Health: 0 Eccentricity: 0.01102733612 Time of Applicability(s): 503808 Orbital Inclination(rad): 0.9285281583 Rate of Right Ascen(r/s): -8.160339911e-09 SQRT(A) (m 1/2): 5153.674805 Right Ascen at Week(rad): 0.2394496823 Argument of Perigee(rad): 0.7127119671 Mean Anom(rad): 0.3044405085 Af0(s): -0.0002781058228 Af1(s/s): -3.637979e-12 week: 365 ******** Week 365 almanac for PRN-27 ******** ID: 27 Health: 0 Eccentricity: 0.01437664032 Time of Applicability(s): 503808 Orbital Inclination(rad): 0.9519633101 Rate of Right Ascen(r/s): -7.954617056e-09 SQRT(A) (m 1/2): 5153.615234 Right Ascen at Week(rad): 1.369617144 Argument of Perigee(rad): 0.8916094805 Mean Anom(rad): -1.425759493 Af0(s): -7.988947754e-05 Af1(s/s): -1.455192e-11 week: 365 ******** Week 365 almanac for PRN-28 ******** ID: 28 Health: 0 Eccentricity: 0.0003924369812 Time of Applicability(s): 503808 Orbital Inclination(rad): 0.9618922404 Rate of Right Ascen(r/s): -7.737465153e-09 SQRT(A) (m 1/2): 5153.515625 Right Ascen at Week(rad): -0.7341176653 Argument of Perigee(rad): -0.3593503545 Mean Anom(rad): 2.617739714 Af0(s): -0.0004408994751 Af1(s/s): 1.091394e-11 week: 365 ******** Week 365 almanac for PRN-29 ******** ID: 29 Health: 0 Eccentricity: 0.003477573395 Time of Applicability(s): 503808 Orbital Inclination(rad): 0.9611432264 Rate of Right Ascen(r/s): -7.874613723e-09 SQRT(A) (m 1/2): 5153.6875 Right Ascen at Week(rad): 1.459423555 Argument of Perigee(rad): 2.757476151 Mean Anom(rad): -1.590722723 Af0(s): -0.0002705690796 Af1(s/s): 7.275958e-12 week: 365 ******** Week 365 almanac for PRN-30 ******** ID: 30 Health: 0 Eccentricity: 0.008190631866 Time of Applicability(s): 503808 Orbital Inclination(rad): 0.9362519912 Rate of Right Ascen(r/s): -7.988904198e-09 SQRT(A) (m 1/2): 5153.682617 Right Ascen at Week(rad): -0.7183748879 Argument of Perigee(rad): -2.292961226 Mean Anom(rad): 1.721768724 Af0(s): 0.0001447054687 Af1(s/s): 1.455192e-11 week: 365 ******** Week 365 almanac for PRN-31 ******** ID: 31 Health: 0 Eccentricity: 0.01081466675 Time of Applicability(s): 503808 Orbital Inclination(rad): 0.9547436503 Rate of Right Ascen(r/s): -7.794610391e-09 SQRT(A) (m 1/2): 5153.534668 Right Ascen at Week(rad): -0.6844213317 Argument of Perigee(rad): 0.9429944664 Mean Anom(rad): 0.8580169491 Af0(s): -0.0001236025879 Af1(s/s): 3.637979e-12 week: 365 ******** Week 365 almanac for PRN-32 ******** ID: 32 Health: 0 Eccentricity: 0.009396553039 Time of Applicability(s): 503808 Orbital Inclination(rad): 0.9679622503 Rate of Right Ascen(r/s): -7.851755628e-09 SQRT(A) (m 1/2): 5153.700195 Right Ascen at Week(rad): -1.764893958 Argument of Perigee(rad): -1.984019518 Mean Anom(rad): -0.8744828996 Af0(s): -3.768371582e-06 Af1(s/s): 1.818989e-11 week: 365